Weather reports worldwide

Advertisment
Chillingham Barns, United Kingdom (99196): temperature & dewpoint: 18.06.2017 04:00:00 - 24.06.2017 04:00:00 (BST)Chillingham Barns, United Kingdom (99196): temperature 5cm: 18.06.2017 04:00:00 - 24.06.2017 04:00:00 (BST)Chillingham Barns, United Kingdom (99196): visibility: 18.06.2017 04:00:00 - 24.06.2017 04:00:00 (BST)Chillingham Barns, United Kingdom (99196): precipitation: 18.06.2017 04:00:00 - 24.06.2017 04:00:00 (BST)
Date & Time tt [°C] td [°C] tt 5cm [°C] vv [km] rr [mm]
24.06.2017 04:00:00 - - - - 0,0
24.06.2017 03:00:00 11,1 6,8 - - 0,0
24.06.2017 02:00:00 10,7 7,2 - - 0,0
24.06.2017 01:00:00 11,1 8,4 - - 0,0
24.06.2017 00:00:00 10,5 8,0 - - 0,0
23.06.2017 23:00:00 12,8 8,2 - - 0,0
23.06.2017 22:00:00 13,3 9,1 - 10 0,0
23.06.2017 21:00:00 14,9 8,8 - - 0,0
23.06.2017 20:00:00 16,6 9,0 - - 0,0
23.06.2017 19:00:00 17,2 9,0 - - 0,0
23.06.2017 18:00:00 18,2 10,4 - - 0,0
23.06.2017 17:00:00 16,9 11,5 - - 0,0
23.06.2017 16:00:00 16,6 12,4 - - 0,0
23.06.2017 15:00:00 16,4 14,0 - - 0,4
23.06.2017 14:00:00 16,5 14,0 - - 0,0
23.06.2017 13:00:00 17,1 13,5 - - 0,0
23.06.2017 12:00:00 18,4 13,8 - - 0,0
23.06.2017 11:00:00 15,7 13,0 - - 0,0
23.06.2017 10:00:00 15,8 12,4 - 1,9 0,0
23.06.2017 09:00:00 15,7 12,2 - - 0,0
23.06.2017 08:00:00 14,6 11,8 - - 0,2
23.06.2017 07:00:00 14,4 11,1 - - 0,0
23.06.2017 06:00:00 14,5 11,0 - - 0,0
23.06.2017 05:00:00 14,0 10,7 - - 0,0
23.06.2017 04:00:00 13,5 10,8 - - 0,0
23.06.2017 03:00:00 13,7 10,3 - - 0,0
23.06.2017 02:00:00 13,8 10,8 - - 0,0
23.06.2017 01:00:00 13,9 10,2 - - 0,0
23.06.2017 00:00:00 13,5 11,1 - - 0,2
22.06.2017 23:00:00 14,6 11,5 - - 0,0
22.06.2017 22:00:00 15,5 12,1 - - 0,0
22.06.2017 21:00:00 15,2 13,6 - - 0,0
22.06.2017 20:00:00 16,1 13,9 - - 0,0
22.06.2017 19:00:00 17,1 13,6 - - 0,0
22.06.2017 18:00:00 17,3 13,0 - - 0,0
22.06.2017 17:00:00 16,8 13,1 - - 0,0
22.06.2017 16:00:00 16,1 13,2 - - 0,0
22.06.2017 15:00:00 15,5 13,2 - - 0,0
22.06.2017 14:00:00 16,4 13,8 - - 0,0
22.06.2017 13:00:00 17,3 13,2 - - 0,0
22.06.2017 12:00:00 17,6 13,6 - - 0,0
22.06.2017 11:00:00 17,2 12,9 - - 0,0
22.06.2017 10:00:00 16,8 13,1 - 6 0,0
22.06.2017 09:00:00 16,8 14,3 - - 0,0
22.06.2017 08:00:00 18,2 16,1 - - 0,0
22.06.2017 07:00:00 18,4 16,8 - - 0,0
22.06.2017 06:00:00 18,3 16,7 - - 0,0
22.06.2017 05:00:00 18,4 16,6 - - 0,0
22.06.2017 04:00:00 18,2 16,2 - - 0,0
22.06.2017 03:00:00 19,3 16,1 - - 0,0
22.06.2017 02:00:00 20,2 15,8 - - 0,0
22.06.2017 01:00:00 19,3 17,2 - - 0,0
22.06.2017 00:00:00 18,3 17,5 - - 0,0
21.06.2017 23:00:00 18,2 17,3 - - 0,0
21.06.2017 22:00:00 18,9 17,5 - - 0,0
21.06.2017 21:00:00 19,3 17,3 - - 0,0
21.06.2017 20:00:00 20,2 18,0 - - 0,0
21.06.2017 19:00:00 20,9 18,4 - - 0,0
21.06.2017 18:00:00 19,1 17,0 - - 0,0
21.06.2017 17:00:00 20,0 17,4 - - 0,0
21.06.2017 16:00:00 19,5 17,6 - - 0,0
21.06.2017 15:00:00 19,2 16,7 - - 0,0
21.06.2017 14:00:00 17,3 15,6 - - 0,0
21.06.2017 13:00:00 16,5 15,5 - - 0,0
21.06.2017 12:00:00 14,7 14,2 - - 0,0
21.06.2017 11:00:00 14,1 13,8 - - 0,4
21.06.2017 10:00:00 14,0 12,5 14,9 0,1 0,2
21.06.2017 09:00:00 14,8 11,8 - - 0,0
21.06.2017 08:00:00 14,5 10,6 - - 0,0
21.06.2017 07:00:00 13,4 10,6 - - 0,0
21.06.2017 06:00:00 12,6 10,7 - - 0,0
21.06.2017 05:00:00 12,5 11,1 - - 0,0
21.06.2017 04:00:00 12,6 11,2 - - 0,0
21.06.2017 03:00:00 12,2 10,8 - - 0,0
21.06.2017 02:00:00 12,0 11,0 - - 0,0
21.06.2017 01:00:00 12,3 11,4 - - 0,0
21.06.2017 00:00:00 12,1 11,2 - - 0,0
20.06.2017 23:00:00 12,0 11,1 - - 0,0
20.06.2017 22:00:00 13,1 11,6 - - 0,0
20.06.2017 21:00:00 14,1 11,3 - - 0,0
20.06.2017 20:00:00 14,9 11,6 - - 0,0
20.06.2017 19:00:00 15,5 11,7 - - 0,0
20.06.2017 18:00:00 16,5 11,3 - - 0,0
20.06.2017 17:00:00 17,0 11,8 - - 0,0
20.06.2017 16:00:00 17,2 12,2 - - 0,0
20.06.2017 15:00:00 16,4 12,3 - - 0,0
20.06.2017 14:00:00 16,5 12,2 - - 0,0
20.06.2017 13:00:00 16,4 12,7 - - 0,0
20.06.2017 12:00:00 16,4 12,2 - - 0,0
20.06.2017 11:00:00 16,0 12,4 - - 0,0
20.06.2017 10:00:00 15,6 11,2 16,5 16 0,0
20.06.2017 09:00:00 15,3 11,7 - - 0,0
20.06.2017 08:00:00 15,2 13,3 - - -
20.06.2017 07:00:00 13,0 12,0 - - -
20.06.2017 06:00:00 11,9 11,3 - - 0,0
20.06.2017 05:00:00 11,5 11,2 - - 0,0
20.06.2017 04:00:00 11,1 10,8 - - 0,0
20.06.2017 03:00:00 10,9 10,6 - - 0,0
20.06.2017 02:00:00 10,6 10,5 - - -
20.06.2017 01:00:00 9,8 9,4 - - 0,0
20.06.2017 00:00:00 10,7 10,4 - - 0,0
19.06.2017 23:00:00 11,4 10,4 - - 0,0
19.06.2017 22:00:00 13,0 11,4 - - 0,0
19.06.2017 21:00:00 13,7 12,1 - - 0,0
19.06.2017 20:00:00 14,9 12,8 - - 0,0
19.06.2017 19:00:00 17,0 13,3 - - 0,0
19.06.2017 18:00:00 19,9 14,8 - - 0,0
19.06.2017 17:00:00 20,7 14,8 - - 0,0
19.06.2017 16:00:00 21,7 14,9 - - 0,0
19.06.2017 15:00:00 25,8 15,4 - - 0,0
19.06.2017 14:00:00 26,8 15,8 - - 0,0
19.06.2017 13:00:00 25,7 15,4 - - 0,0
19.06.2017 12:00:00 24,2 14,8 - - 0,0
19.06.2017 11:00:00 24,1 14,6 - - 0,0
19.06.2017 10:00:00 23,4 14,9 23,4 40 0,0
19.06.2017 09:00:00 20,2 14,4 - - 0,0
19.06.2017 08:00:00 17,2 13,4 - - 0,0
19.06.2017 07:00:00 12,9 12,3 - - 0,0
19.06.2017 06:00:00 11,4 10,9 - - 0,0
19.06.2017 05:00:00 10,7 10,5 - - 0,0
19.06.2017 04:00:00 11,3 11,3 - - 0,0
19.06.2017 03:00:00 12,2 12,1 - - -
19.06.2017 02:00:00 12,4 11,9 - - 0,0
19.06.2017 01:00:00 13,7 12,9 - - 0,0
19.06.2017 00:00:00 14,9 13,3 - - 0,0
18.06.2017 23:00:00 16,7 13,3 - - 0,0
18.06.2017 22:00:00 19,0 13,6 - - 0,0
18.06.2017 21:00:00 21,0 14,5 - - 0,0
18.06.2017 20:00:00 22,3 14,7 - - 0,0
18.06.2017 19:00:00 24,0 12,6 - - 0,0
18.06.2017 18:00:00 24,6 13,3 - - 0,0
18.06.2017 17:00:00 25,5 14,6 - - 0,0
18.06.2017 16:00:00 26,0 14,1 - - 0,0
18.06.2017 15:00:00 24,5 15,3 - - 0,0
18.06.2017 14:00:00 25,9 16,3 - - -
18.06.2017 13:00:00 25,9 15,5 - - 0,0
18.06.2017 12:00:00 25,6 16,2 - - 0,0
18.06.2017 11:00:00 24,0 15,7 - - 0,0
18.06.2017 10:00:00 23,4 14,9 23,4 0,6 0,0
18.06.2017 09:00:00 21,8 12,6 - - 0,0
18.06.2017 08:00:00 20,4 12,6 - - 0,0
18.06.2017 07:00:00 17,3 13,6 - - 0,0
18.06.2017 06:00:00 15,2 12,0 - - 0,0
18.06.2017 05:00:00 15,6 11,8 - - 0,0
18.06.2017 04:00:00 16,1 12,5 - - 0,0

tt = temperature
td = dewpoint
tt 5cm = temperature 5cm
vv = visibility
rr = precipitation

Next stations